CZ-3C DEB, 40835

Orbit data source: Space-Track

CZ-3C DEB, 40835 is space debris in HEO originally from a launch on Sun, 31 Oct 2010 UTC launched from the Xichang Space Center, China (XSC). Debris objects in space refer to the collection of defunct objects orbiting the Earth. Examples of debris include non-operational satellites, rocket bodies, and fragments generated from explosions, collisions, or faulty payload assembly.

Loading next visibility...
Identifier
40835, 2010-057BC
Orbit
HEO
Country
Flag of CNCN / PRC
Related business
Manufacturer
CALT
Mission
Spacecraft
Bus & Motor
Unknown
Mass
Unknown
Launch date (UTC)
2010-10-31 (15 years ago)
Launch vehicle
Unknown
Launch site
Xichang Space Center, China (XSC)
Object type
Payload
Rocket body
Debris
Shape & HBR
Unknown shape, 0.2 m
Radar Cross Section
Small (<0.1 m²)

Expand to show TLE details & history
Last TLE update: 3 days ago

TLE from 3 days ago
0 CZ-3C DEB
1 40835U 10057BC  25296.02088319 -.00000155  00000-0 -52077-3 0  9995
2 40835  19.7866 197.2571 7170753 348.9553   1.4384  2.20287768  7131
Epoch: 2025-10-23T00:30Z
TLE epoch observation values (Epoch: 2025-10-23T00:30:04.307Z)
Latitude
-0.00005°
Longitude
158.03805°
Altitude
718.365 km
Speed
9.816 km/s
True Right ascension
13h 08m 58s
True Declination
0° 00' 00"
Sunlit
Object was in daylight at epoch
Visualization orbit readout
Latitude
Unknown
Longitude
Unknown
Altitude
Unknown
Speed
Unknown
Apparent Right ascension
Unknown
Apparent Declination
Unknown
Sunlit
N/A
Visualization observer readout
Local Sidereal Time
02:53:43
Azimuth
Unknown
Elevation
Unknown
Doppler factor
Unknown
Orbital elements
Apogee altitude
36,470.763 km
Perigee altitude
682.131 km
Semi-major axis
24,954.584 km
Eccentricity
0.71708
Inclination
19.7866°
RAAN
197.2571°
Arg. of periapsis
348.9553°
True anomaly
12.4425°
Mean anomaly
1.4384°
Eccentric anomaly
5.0673°
Mean motion
0.55058 °/min
Orbital period
653.86 mins
BSTAR
-0.00052077
Loading maneuver chart data...
Computing Atmospheric mass density...
Loading historical data...
Loading historical data...
Loading historical data...
Loading historical data...
Loading historical data...
Loading historical data...
Loading historical data...

Documentation

Showing up to 5 results
|